[Iaude] MPEC G15: 2024 GD [a=2.04,e=0.56,i=6.1,H=24.7]
    mpec at cfa.harvard.edu 
    mpec at cfa.harvard.edu
       
    Tue Apr  2 21:56:42 EDT 2024
    
    
  
M.P.E.C. 2024-G15                                 Issued 2024 April 3, 01:55 UT
     The Minor Planet Electronic Circulars contain information on unusual
         minor planets, routine data on comets and natural satellites,
         and occasional editorial announcements.  They are published
    on behalf of Division F of the International Astronomical Union by the
          Minor Planet Center, Smithsonian Astrophysical Observatory,
                          Cambridge, MA 02138, U.S.A.
			  
             Prepared using the Tamkin Foundation Computer Network
                              MPC at CFA.HARVARD.EDU
            URL https://www.minorplanetcenter.net/    ISSN 1523-6714
                                    2024 GD                                     
Observations:
     K24G00D* C2024 04 01.25777613 31 45.984-28 01 23.59         18.41oVEG015W68
     K24G00D  C2024 04 01.26093613 31 45.926-28 01 27.84         18.56oVEG015W68
     K24G00D  C2024 04 01.26655813 31 45.802-28 01 34.90         18.74oVEG015W68
     K24G00D  C2024 04 01.27378313 31 45.550-28 01 44.87         18.86oVEG015W68
     K24G00D  C2024 04 01.27695513 31 45.516-28 01 47.68         18.94oVEG015W68
     K24G00D  C2024 04 01.28230913 31 45.382-28 01 54.19         18.95oVEG015W68
     K24G00D  C2024 04 01.29238113 31 45.142-28 02 06.65         18.85oVEG015W68
     K24G00D KB2024 04 01.58334 13 32 12.61 -28 11 29.8          19.5 GXEG015Q06
     K24G00D KB2024 04 01.59096 13 32 12.56 -28 11 41.2          19.2 GXEG015Q06
     K24G00D KB2024 04 01.59810 13 32 12.33 -28 11 50.4          21.2 GXEG015Q06
     K24G00D KB2024 04 01.78003113 32 08.35 -28 11 40.7          18.8 GXEG015Q20
     K24G00D KB2024 04 01.79848113 32 08.44 -28 11 55.5          18.8 GXEG015Q20
     K24G00D KB2024 04 01.81692113 32 08.67 -28 12 09.6                XEG015Q20
     K24G00D  C2024 04 01.97845913 32 27.324-28 15 53.68         19.06oVEG015M22
     K24G00D  C2024 04 01.99093413 32 26.935-28 16 06.56         18.93oVEG015M22
     K24G00D  C2024 04 02.00479913 32 26.534-28 16 20.39         19.18oVEG015M22
     K24G00D KC2024 04 02.48293 13 32 54.22 -28 23 23.6          18.6 rZEG015R56
     K24G00D KC2024 04 02.49923313 32 53.945-28 23 41.06         19.6 GVEG015474
     K24G00D KC2024 04 02.50020 13 32 53.95 -28 23 42.1          19.3 rZEG015R56
     K24G00D KC2024 04 02.50357113 32 53.866-28 23 45.53         19.6 GVEG015474
     K24G00D KC2024 04 02.50791313 32 53.784-28 23 50.03         19.7 GVEG015474
     K24G00D KC2024 04 02.51751 13 32 53.61 -28 23 59.4          19.1 rZEG015R56
Observer details:
474 Mount John Observatory, Lake Tekapo.  Observers A. C. Gilmore, P. M.
    Kilmartin.  Measurer P. M. Kilmartin.  0.6-m f/6.3 Reflector + CCD.
M22 ATLAS South Africa, Sutherland.  Observers L. Denneau, R. Siverd, J.
    Tonry, H. Weiland.  Measurers L. Denneau, N. Erasmus, A. Fitzsimmons, J.
    Robinson, R. Siverd, J. Tonry, H. Weiland.  0.5-m Reflector + CCD.
Q06 Tarui Observatory, Tarui.  Observer H. Watanabe.  0.35-m f/1.9 Schmidt-
    Cassegrain + CMO.
Q20 Swan Reach Imaging, Glenalta.  Observer J. Jahn.  0.30-m f/3.8 reflector +
    CMO.
R56 Scott Street Observatory, Lake Tekapo.  Observer A. Vilquin Barrajon.
    0.20-m f/8.1 reflector + CCD.
W68 ATLAS Chile, Rio Hurtado.  Observers L. Denneau, R. Siverd, J. Tonry, H.
    Weiland.  Measurers L. Denneau, N. Erasmus, A. Fitzsimmons, J. Robinson,
    R. Siverd, J. Tonry, H. Weiland.  0.5-m Reflector + CCD.
Orbital elements:
2024 GD                                                  Earth MOID = 0.0016 AU
Epoch 2024 Mar. 31.0 TT = JDT 2460400.5                 Veres                   
M  12.78875              (2000.0)            P               Q                  
n   0.33728964     Peri.  134.86163     -0.77668859     -0.62978385             
a   2.0439364      Node     6.13522     +0.54407484     -0.67979192             
e   0.5617393      Incl.    6.05604     +0.31739157     -0.37583938             
P   2.92           H   24.75          G   0.15           U   9                  
Residuals in seconds of arc
240401 W68  1.0+  0.6+    240401 Q06  0.3+  0.6-    240402 R56  0.3+  0.1+
240401 W68  1.3+  0.5+    240401 Q06  0.9-  0.1+    240402 474  0.0   0.0
240401 W68  1.5+  0.5+    240401 Q20  0.9-  1.0+    240402 R56  0.4+  0.1-
240401 W68  0.4+  0.4-    240401 Q20  0.6-  0.4+    240402 474  0.0   0.0
240401 W68  0.9+  0.7+    240401 Q20  0.2-  0.4-    240402 474  0.1-  0.0
240401 W68  0.7+  0.6+    240401 M22  0.3+  0.2-    240402 R56  0.1+  0.2+
240401 W68  0.3+  0.0     240401 M22  0.0   0.1-
240401 Q06  0.8-  0.1+    240402 M22  0.0   0.2-
Ephemeris:
2024 GD                  a,e,i = 2.04, 0.56, 6                   q = 0.8958
Date    TT    R. A. (2000) Decl.     Delta      r    Elong.  Phase     V
2024 03 04    01 31 14.5 +28 54 17   0.1477  0.9056    50.8   121.9    25.4
...
2024 03 19    01 42 32.4 +31 49 08   0.04694 0.9608    41.2   136.9    24.5
...
2024 03 27    12 57 19.5 -13 45 16   0.0064511.0041   166.1    13.8    14.6
...
2024 04 02    13 32 28.4 -28 16 28   0.04588 1.0410   154.1    24.8    19.3
2024 04 03    13 33 08.8 -28 31 21   0.05254 1.0475   154.5    24.2    19.6
2024 04 04    13 33 37.9 -28 41 57   0.05922 1.0541   155.0    23.6    19.8
...
2024 04 10    13 34 41.6 -29 01 02   0.09994 1.0954   158.4    19.7    20.9
...
2024 04 18    13 34 48.7 -28 39 24   0.1568  1.1542   162.0    15.6    21.9
...
2024 05 03    13 36 31.1 -27 19 33   0.2755  1.2717   161.0    14.9    23.3
M. P. C. Staff               (C) Copyright 2024 MPC           M.P.E.C. 2024-G15
    
    
More information about the Iaude
mailing list